<?xml version="1.0" encoding="UTF-8" standalone="no" ?>
<gpx xmlns="http://www.topografix.com/GPX/1/1" xmlns:xsi="http://www.w3.org/2001/XMLSchema-instance" xsi:schemaLocation="http://www.topografix.com/GPX/1/1 http://www.topografix.com/GPX/1/1/gpx.xsd" version="1.1" creator="VisuGPX - https://www.visugpx.com">
  <metadata>
    <name>Chateldon the race</name>
    <desc><![CDATA[circuit technique au depart de chateldon]]></desc>
  </metadata>
  <trk>
    <name><![CDATA[track]]></name>
    <trkseg>
      <trkpt lat="45.97964" lon="3.51686">
        <ele>308</ele>
        <time>2010-01-29T18:49:10Z</time>
      </trkpt>
      <trkpt lat="45.97921" lon="3.51672">
        <ele>308</ele>
        <time>2010-01-29T18:49:10Z</time>
      </trkpt>
      <trkpt lat="45.97887" lon="3.51691">
        <ele>312</ele>
        <time>2010-01-29T18:49:10Z</time>
      </trkpt>
      <trkpt lat="45.97837" lon="3.51819">
        <ele>315</ele>
        <time>2010-01-29T18:49:10Z</time>
      </trkpt>
      <trkpt lat="45.97734" lon="3.51952">
        <ele>314</ele>
        <time>2010-01-29T18:49:10Z</time>
      </trkpt>
      <trkpt lat="45.97693" lon="3.5199">
        <ele>314</ele>
        <time>2010-01-29T18:49:10Z</time>
      </trkpt>
      <trkpt lat="45.97651" lon="3.51954">
        <ele>317</ele>
        <time>2010-01-29T18:49:10Z</time>
      </trkpt>
      <trkpt lat="45.97597" lon="3.51936">
        <ele>319</ele>
        <time>2010-01-29T18:49:10Z</time>
      </trkpt>
      <trkpt lat="45.9754" lon="3.51977">
        <ele>320</ele>
        <time>2010-01-29T18:49:10Z</time>
      </trkpt>
      <trkpt lat="45.97508" lon="3.52051">
        <ele>328</ele>
        <time>2010-01-29T18:49:10Z</time>
      </trkpt>
      <trkpt lat="45.97499" lon="3.52086">
        <ele>333</ele>
        <time>2010-01-29T18:49:10Z</time>
      </trkpt>
      <trkpt lat="45.9751" lon="3.52115">
        <ele>339</ele>
        <time>2010-01-29T18:49:10Z</time>
      </trkpt>
      <trkpt lat="45.97496" lon="3.52137">
        <ele>341</ele>
        <time>2010-01-29T18:49:10Z</time>
      </trkpt>
      <trkpt lat="45.97498" lon="3.52167">
        <ele>345</ele>
        <time>2010-01-29T18:49:10Z</time>
      </trkpt>
      <trkpt lat="45.97511" lon="3.52202">
        <ele>345</ele>
        <time>2010-01-29T18:49:10Z</time>
      </trkpt>
      <trkpt lat="45.97406" lon="3.52332">
        <ele>371</ele>
        <time>2010-01-29T18:49:10Z</time>
      </trkpt>
      <trkpt lat="45.97357" lon="3.52318">
        <ele>372</ele>
        <time>2010-01-29T18:49:10Z</time>
      </trkpt>
      <trkpt lat="45.97307" lon="3.5232">
        <ele>371</ele>
        <time>2010-01-29T18:49:10Z</time>
      </trkpt>
      <trkpt lat="45.97291" lon="3.52378">
        <ele>382</ele>
        <time>2010-01-29T18:49:10Z</time>
      </trkpt>
      <trkpt lat="45.97245" lon="3.52451">
        <ele>391</ele>
        <time>2010-01-29T18:49:10Z</time>
      </trkpt>
      <trkpt lat="45.97191" lon="3.52495">
        <ele>392</ele>
        <time>2010-01-29T18:49:10Z</time>
      </trkpt>
      <trkpt lat="45.97126" lon="3.526">
        <ele>404</ele>
        <time>2010-01-29T18:49:10Z</time>
      </trkpt>
      <trkpt lat="45.97" lon="3.52672">
        <ele>401</ele>
        <time>2010-01-29T18:49:10Z</time>
      </trkpt>
      <trkpt lat="45.96968" lon="3.52678">
        <ele>392</ele>
        <time>2010-01-29T18:49:10Z</time>
      </trkpt>
      <trkpt lat="45.96885" lon="3.52847">
        <ele>400</ele>
        <time>2010-01-29T18:49:10Z</time>
      </trkpt>
      <trkpt lat="45.96855" lon="3.52959">
        <ele>405</ele>
        <time>2010-01-29T18:49:10Z</time>
      </trkpt>
      <trkpt lat="45.96787" lon="3.52971">
        <ele>422</ele>
        <time>2010-01-29T18:49:10Z</time>
      </trkpt>
      <trkpt lat="45.9675" lon="3.52886">
        <ele>426</ele>
        <time>2010-01-29T18:49:10Z</time>
      </trkpt>
      <trkpt lat="45.967" lon="3.5294">
        <ele>444</ele>
        <time>2010-01-29T18:49:10Z</time>
      </trkpt>
      <trkpt lat="45.96662" lon="3.52948">
        <ele>441</ele>
        <time>2010-01-29T18:49:10Z</time>
      </trkpt>
      <trkpt lat="45.96643" lon="3.53025">
        <ele>448</ele>
        <time>2010-01-29T18:49:10Z</time>
      </trkpt>
      <trkpt lat="45.96381" lon="3.53313">
        <ele>439</ele>
        <time>2010-01-29T18:49:10Z</time>
      </trkpt>
      <trkpt lat="45.96349" lon="3.53377">
        <ele>434</ele>
        <time>2010-01-29T18:49:10Z</time>
      </trkpt>
      <trkpt lat="45.9631" lon="3.53415">
        <ele>431</ele>
        <time>2010-01-29T18:49:10Z</time>
      </trkpt>
      <trkpt lat="45.96271" lon="3.53343">
        <ele>433</ele>
        <time>2010-01-29T18:49:10Z</time>
      </trkpt>
      <trkpt lat="45.96257" lon="3.53317">
        <ele>431</ele>
        <time>2010-01-29T18:49:10Z</time>
      </trkpt>
      <trkpt lat="45.96258" lon="3.53282">
        <ele>433</ele>
        <time>2010-01-29T18:49:10Z</time>
      </trkpt>
      <trkpt lat="45.96274" lon="3.53243">
        <ele>433</ele>
        <time>2010-01-29T18:49:10Z</time>
      </trkpt>
      <trkpt lat="45.96322" lon="3.53202">
        <ele>430</ele>
        <time>2010-01-29T18:49:10Z</time>
      </trkpt>
      <trkpt lat="45.96349" lon="3.53167">
        <ele>431</ele>
        <time>2010-01-29T18:49:10Z</time>
      </trkpt>
      <trkpt lat="45.96365" lon="3.53129">
        <ele>438</ele>
        <time>2010-01-29T18:49:10Z</time>
      </trkpt>
      <trkpt lat="45.96372" lon="3.53091">
        <ele>442</ele>
        <time>2010-01-29T18:49:10Z</time>
      </trkpt>
      <trkpt lat="45.96384" lon="3.53036">
        <ele>444</ele>
        <time>2010-01-29T18:49:10Z</time>
      </trkpt>
      <trkpt lat="45.9638" lon="3.53013">
        <ele>446</ele>
        <time>2010-01-29T18:49:10Z</time>
      </trkpt>
      <trkpt lat="45.9636" lon="3.53013">
        <ele>449</ele>
        <time>2010-01-29T18:49:10Z</time>
      </trkpt>
      <trkpt lat="45.9631" lon="3.53028">
        <ele>453</ele>
        <time>2010-01-29T18:49:10Z</time>
      </trkpt>
      <trkpt lat="45.9624" lon="3.5302">
        <ele>451</ele>
        <time>2010-01-29T18:49:10Z</time>
      </trkpt>
      <trkpt lat="45.962" lon="3.53013">
        <ele>451</ele>
        <time>2010-01-29T18:49:10Z</time>
      </trkpt>
      <trkpt lat="45.96053" lon="3.52893">
        <ele>458</ele>
        <time>2010-01-29T18:49:10Z</time>
      </trkpt>
      <trkpt lat="45.96028" lon="3.52928">
        <ele>462</ele>
        <time>2010-01-29T18:49:10Z</time>
      </trkpt>
      <trkpt lat="45.95953" lon="3.52933">
        <ele>468</ele>
        <time>2010-01-29T18:49:10Z</time>
      </trkpt>
      <trkpt lat="45.9589" lon="3.52948">
        <ele>469</ele>
        <time>2010-01-29T18:49:10Z</time>
      </trkpt>
      <trkpt lat="45.95876" lon="3.52989">
        <ele>473</ele>
        <time>2010-01-29T18:49:10Z</time>
      </trkpt>
      <trkpt lat="45.9589" lon="3.53003">
        <ele>475</ele>
        <time>2010-01-29T18:49:10Z</time>
      </trkpt>
      <trkpt lat="45.9593" lon="3.53013">
        <ele>476</ele>
        <time>2010-01-29T18:49:10Z</time>
      </trkpt>
      <trkpt lat="45.95945" lon="3.53033">
        <ele>477</ele>
        <time>2010-01-29T18:49:10Z</time>
      </trkpt>
      <trkpt lat="45.95956" lon="3.53059">
        <ele>479</ele>
        <time>2010-01-29T18:49:10Z</time>
      </trkpt>
      <trkpt lat="45.95888" lon="3.53141">
        <ele>489</ele>
        <time>2010-01-29T18:49:10Z</time>
      </trkpt>
      <trkpt lat="45.95831" lon="3.53237">
        <ele>495</ele>
        <time>2010-01-29T18:49:10Z</time>
      </trkpt>
      <trkpt lat="45.95712" lon="3.53173">
        <ele>486</ele>
        <time>2010-01-29T18:49:10Z</time>
      </trkpt>
      <trkpt lat="45.95605" lon="3.53103">
        <ele>471</ele>
        <time>2010-01-29T18:49:10Z</time>
      </trkpt>
      <trkpt lat="45.95637" lon="3.52855">
        <ele>468</ele>
        <time>2010-01-29T18:49:10Z</time>
      </trkpt>
      <trkpt lat="45.95603" lon="3.52642">
        <ele>461</ele>
        <time>2010-01-29T18:49:10Z</time>
      </trkpt>
      <trkpt lat="45.95531" lon="3.52866">
        <ele>482</ele>
        <time>2010-01-29T18:49:10Z</time>
      </trkpt>
      <trkpt lat="45.95499" lon="3.52881">
        <ele>484</ele>
        <time>2010-01-29T18:49:10Z</time>
      </trkpt>
      <trkpt lat="45.95322" lon="3.52839">
        <ele>469</ele>
        <time>2010-01-29T18:49:10Z</time>
      </trkpt>
      <trkpt lat="45.95266" lon="3.52841">
        <ele>465</ele>
        <time>2010-01-29T18:49:10Z</time>
      </trkpt>
      <trkpt lat="45.95239" lon="3.52789">
        <ele>457</ele>
        <time>2010-01-29T18:49:10Z</time>
      </trkpt>
      <trkpt lat="45.95194" lon="3.52878">
        <ele>469</ele>
        <time>2010-01-29T18:49:10Z</time>
      </trkpt>
      <trkpt lat="45.95017" lon="3.52997">
        <ele>489</ele>
        <time>2010-01-29T18:49:10Z</time>
      </trkpt>
      <trkpt lat="45.95062" lon="3.5322">
        <ele>511</ele>
        <time>2010-01-29T18:49:10Z</time>
      </trkpt>
      <trkpt lat="45.94956" lon="3.53443">
        <ele>509</ele>
        <time>2010-01-29T18:49:10Z</time>
      </trkpt>
      <trkpt lat="45.94943" lon="3.53617">
        <ele>511</ele>
        <time>2010-01-29T18:49:10Z</time>
      </trkpt>
      <trkpt lat="45.94899" lon="3.53671">
        <ele>508</ele>
        <time>2010-01-29T18:49:10Z</time>
      </trkpt>
      <trkpt lat="45.94921" lon="3.53775">
        <ele>511</ele>
        <time>2010-01-29T18:49:10Z</time>
      </trkpt>
      <trkpt lat="45.9504" lon="3.5401">
        <ele>526</ele>
        <time>2010-01-29T18:49:10Z</time>
      </trkpt>
      <trkpt lat="45.95129" lon="3.54102">
        <ele>542</ele>
        <time>2010-01-29T18:49:10Z</time>
      </trkpt>
      <trkpt lat="45.95151" lon="3.54102">
        <ele>546</ele>
        <time>2010-01-29T18:49:10Z</time>
      </trkpt>
      <trkpt lat="45.95142" lon="3.54134">
        <ele>543</ele>
        <time>2010-01-29T18:49:10Z</time>
      </trkpt>
      <trkpt lat="45.95079" lon="3.54165">
        <ele>540</ele>
        <time>2010-01-29T18:49:10Z</time>
      </trkpt>
      <trkpt lat="45.95038" lon="3.54187">
        <ele>543</ele>
        <time>2010-01-29T18:49:10Z</time>
      </trkpt>
      <trkpt lat="45.94959" lon="3.54172">
        <ele>539</ele>
        <time>2010-01-29T18:49:10Z</time>
      </trkpt>
      <trkpt lat="45.9489" lon="3.54135">
        <ele>537</ele>
        <time>2010-01-29T18:49:10Z</time>
      </trkpt>
      <trkpt lat="45.94827" lon="3.54166">
        <ele>535</ele>
        <time>2010-01-29T18:49:10Z</time>
      </trkpt>
      <trkpt lat="45.94722" lon="3.54264">
        <ele>532</ele>
        <time>2010-01-29T18:49:10Z</time>
      </trkpt>
      <trkpt lat="45.9464" lon="3.54391">
        <ele>531</ele>
        <time>2010-01-29T18:49:10Z</time>
      </trkpt>
      <trkpt lat="45.94587" lon="3.54474">
        <ele>528</ele>
        <time>2010-01-29T18:49:10Z</time>
      </trkpt>
      <trkpt lat="45.94622" lon="3.54597">
        <ele>513</ele>
        <time>2010-01-29T18:49:10Z</time>
      </trkpt>
      <trkpt lat="45.94644" lon="3.54665">
        <ele>504</ele>
        <time>2010-01-29T18:49:10Z</time>
      </trkpt>
      <trkpt lat="45.94632" lon="3.54704">
        <ele>501</ele>
        <time>2010-01-29T18:49:10Z</time>
      </trkpt>
      <trkpt lat="45.94631" lon="3.54771">
        <ele>489</ele>
        <time>2010-01-29T18:49:10Z</time>
      </trkpt>
      <trkpt lat="45.94565" lon="3.5486">
        <ele>472</ele>
        <time>2010-01-29T18:49:10Z</time>
      </trkpt>
      <trkpt lat="45.94475" lon="3.54871">
        <ele>461</ele>
        <time>2010-01-29T18:49:10Z</time>
      </trkpt>
      <trkpt lat="45.94341" lon="3.54962">
        <ele>442</ele>
        <time>2010-01-29T18:49:10Z</time>
      </trkpt>
      <trkpt lat="45.94294" lon="3.5497">
        <ele>431</ele>
        <time>2010-01-29T18:49:10Z</time>
      </trkpt>
      <trkpt lat="45.94226" lon="3.54972">
        <ele>412</ele>
        <time>2010-01-29T18:49:10Z</time>
      </trkpt>
      <trkpt lat="45.94175" lon="3.54981">
        <ele>394</ele>
        <time>2010-01-29T18:49:10Z</time>
      </trkpt>
      <trkpt lat="45.94145" lon="3.54986">
        <ele>383</ele>
        <time>2010-01-29T18:49:10Z</time>
      </trkpt>
      <trkpt lat="45.94101" lon="3.54953">
        <ele>369</ele>
        <time>2010-01-29T18:49:10Z</time>
      </trkpt>
      <trkpt lat="45.94104" lon="3.55018">
        <ele>365</ele>
        <time>2010-01-29T18:49:10Z</time>
      </trkpt>
      <trkpt lat="45.9416" lon="3.5508">
        <ele>364</ele>
        <time>2010-01-29T18:49:10Z</time>
      </trkpt>
      <trkpt lat="45.94135" lon="3.55144">
        <ele>364</ele>
        <time>2010-01-29T18:49:10Z</time>
      </trkpt>
      <trkpt lat="45.94179" lon="3.55187">
        <ele>369</ele>
        <time>2010-01-29T18:49:10Z</time>
      </trkpt>
      <trkpt lat="45.94233" lon="3.55188">
        <ele>365</ele>
        <time>2010-01-29T18:49:10Z</time>
      </trkpt>
      <trkpt lat="45.94289" lon="3.55251">
        <ele>369</ele>
        <time>2010-01-29T18:49:10Z</time>
      </trkpt>
      <trkpt lat="45.9427" lon="3.55282">
        <ele>376</ele>
        <time>2010-01-29T18:49:10Z</time>
      </trkpt>
      <trkpt lat="45.94196" lon="3.55329">
        <ele>392</ele>
        <time>2010-01-29T18:49:10Z</time>
      </trkpt>
      <trkpt lat="45.94225" lon="3.55349">
        <ele>398</ele>
        <time>2010-01-29T18:49:10Z</time>
      </trkpt>
      <trkpt lat="45.94267" lon="3.55373">
        <ele>404</ele>
        <time>2010-01-29T18:49:10Z</time>
      </trkpt>
      <trkpt lat="45.94296" lon="3.55425">
        <ele>416</ele>
        <time>2010-01-29T18:49:10Z</time>
      </trkpt>
      <trkpt lat="45.94333" lon="3.55493">
        <ele>430</ele>
        <time>2010-01-29T18:49:10Z</time>
      </trkpt>
      <trkpt lat="45.94416" lon="3.55537">
        <ele>419</ele>
        <time>2010-01-29T18:49:10Z</time>
      </trkpt>
      <trkpt lat="45.94424" lon="3.55602">
        <ele>426</ele>
        <time>2010-01-29T18:49:10Z</time>
      </trkpt>
      <trkpt lat="45.94451" lon="3.55651">
        <ele>418</ele>
        <time>2010-01-29T18:49:10Z</time>
      </trkpt>
      <trkpt lat="45.94447" lon="3.55757">
        <ele>425</ele>
        <time>2010-01-29T18:49:10Z</time>
      </trkpt>
      <trkpt lat="45.94404" lon="3.55834">
        <ele>447</ele>
        <time>2010-01-29T18:49:10Z</time>
      </trkpt>
      <trkpt lat="45.94397" lon="3.55875">
        <ele>444</ele>
        <time>2010-01-29T18:49:10Z</time>
      </trkpt>
      <trkpt lat="45.94297" lon="3.55925">
        <ele>471</ele>
        <time>2010-01-29T18:49:10Z</time>
      </trkpt>
      <trkpt lat="45.94288" lon="3.55963">
        <ele>474</ele>
        <time>2010-01-29T18:49:10Z</time>
      </trkpt>
      <trkpt lat="45.94292" lon="3.55989">
        <ele>472</ele>
        <time>2010-01-29T18:49:10Z</time>
      </trkpt>
      <trkpt lat="45.9428" lon="3.56028">
        <ele>473</ele>
        <time>2010-01-29T18:49:10Z</time>
      </trkpt>
      <trkpt lat="45.94298" lon="3.5607">
        <ele>465</ele>
        <time>2010-01-29T18:49:10Z</time>
      </trkpt>
      <trkpt lat="45.94365" lon="3.56084">
        <ele>471</ele>
        <time>2010-01-29T18:49:10Z</time>
      </trkpt>
      <trkpt lat="45.94398" lon="3.5612">
        <ele>484</ele>
        <time>2010-01-29T18:49:10Z</time>
      </trkpt>
      <trkpt lat="45.94436" lon="3.56173">
        <ele>491</ele>
        <time>2010-01-29T18:49:10Z</time>
      </trkpt>
      <trkpt lat="45.94478" lon="3.56229">
        <ele>500</ele>
        <time>2010-01-29T18:49:10Z</time>
      </trkpt>
      <trkpt lat="45.94503" lon="3.56271">
        <ele>506</ele>
        <time>2010-01-29T18:49:10Z</time>
      </trkpt>
      <trkpt lat="45.94577" lon="3.5627">
        <ele>507</ele>
        <time>2010-01-29T18:49:10Z</time>
      </trkpt>
      <trkpt lat="45.94618" lon="3.56216">
        <ele>509</ele>
        <time>2010-01-29T18:49:10Z</time>
      </trkpt>
      <trkpt lat="45.94632" lon="3.562">
        <ele>510</ele>
        <time>2010-01-29T18:49:10Z</time>
      </trkpt>
      <trkpt lat="45.94655" lon="3.56278">
        <ele>512</ele>
        <time>2010-01-29T18:49:10Z</time>
      </trkpt>
      <trkpt lat="45.94684" lon="3.56324">
        <ele>513</ele>
        <time>2010-01-29T18:49:10Z</time>
      </trkpt>
      <trkpt lat="45.94726" lon="3.56424">
        <ele>507</ele>
        <time>2010-01-29T18:49:10Z</time>
      </trkpt>
      <trkpt lat="45.94705" lon="3.56492">
        <ele>510</ele>
        <time>2010-01-29T18:49:10Z</time>
      </trkpt>
      <trkpt lat="45.9467" lon="3.56594">
        <ele>509</ele>
        <time>2010-01-29T18:49:10Z</time>
      </trkpt>
      <trkpt lat="45.94642" lon="3.56681">
        <ele>507</ele>
        <time>2010-01-29T18:49:10Z</time>
      </trkpt>
      <trkpt lat="45.94753" lon="3.56838">
        <ele>507</ele>
        <time>2010-01-29T18:49:10Z</time>
      </trkpt>
      <trkpt lat="45.94763" lon="3.56912">
        <ele>518</ele>
        <time>2010-01-29T18:49:10Z</time>
      </trkpt>
      <trkpt lat="45.94851" lon="3.56937">
        <ele>511</ele>
        <time>2010-01-29T18:49:10Z</time>
      </trkpt>
      <trkpt lat="45.94929" lon="3.56971">
        <ele>506</ele>
        <time>2010-01-29T18:49:10Z</time>
      </trkpt>
      <trkpt lat="45.95011" lon="3.57108">
        <ele>500</ele>
        <time>2010-01-29T18:49:10Z</time>
      </trkpt>
      <trkpt lat="45.95008" lon="3.57169">
        <ele>502</ele>
        <time>2010-01-29T18:49:10Z</time>
      </trkpt>
      <trkpt lat="45.94967" lon="3.57217">
        <ele>516</ele>
        <time>2010-01-29T18:49:10Z</time>
      </trkpt>
      <trkpt lat="45.94977" lon="3.57339">
        <ele>504</ele>
        <time>2010-01-29T18:49:10Z</time>
      </trkpt>
      <trkpt lat="45.9493" lon="3.57458">
        <ele>510</ele>
        <time>2010-01-29T18:49:10Z</time>
      </trkpt>
      <trkpt lat="45.94917" lon="3.57493">
        <ele>516</ele>
        <time>2010-01-29T18:49:10Z</time>
      </trkpt>
      <trkpt lat="45.94984" lon="3.5752">
        <ele>500</ele>
        <time>2010-01-29T18:49:10Z</time>
      </trkpt>
      <trkpt lat="45.94999" lon="3.57559">
        <ele>502</ele>
        <time>2010-01-29T18:49:10Z</time>
      </trkpt>
      <trkpt lat="45.94978" lon="3.57623">
        <ele>521</ele>
        <time>2010-01-29T18:49:10Z</time>
      </trkpt>
      <trkpt lat="45.94948" lon="3.57674">
        <ele>531</ele>
        <time>2010-01-29T18:49:10Z</time>
      </trkpt>
      <trkpt lat="45.94911" lon="3.57602">
        <ele>548</ele>
        <time>2010-01-29T18:49:10Z</time>
      </trkpt>
      <trkpt lat="45.94828" lon="3.57581">
        <ele>559</ele>
        <time>2010-01-29T18:49:10Z</time>
      </trkpt>
      <trkpt lat="45.94767" lon="3.57577">
        <ele>572</ele>
        <time>2010-01-29T18:49:10Z</time>
      </trkpt>
      <trkpt lat="45.9468" lon="3.57529">
        <ele>602</ele>
        <time>2010-01-29T18:49:10Z</time>
      </trkpt>
      <trkpt lat="45.94648" lon="3.57538">
        <ele>611</ele>
        <time>2010-01-29T18:49:10Z</time>
      </trkpt>
      <trkpt lat="45.94485" lon="3.57699">
        <ele>642</ele>
        <time>2010-01-29T18:49:10Z</time>
      </trkpt>
      <trkpt lat="45.94398" lon="3.57826">
        <ele>641</ele>
        <time>2010-01-29T18:49:10Z</time>
      </trkpt>
      <trkpt lat="45.94303" lon="3.57866">
        <ele>636</ele>
        <time>2010-01-29T18:49:10Z</time>
      </trkpt>
      <trkpt lat="45.94389" lon="3.57965">
        <ele>643</ele>
        <time>2010-01-29T18:49:10Z</time>
      </trkpt>
      <trkpt lat="45.94412" lon="3.58001">
        <ele>640</ele>
        <time>2010-01-29T18:49:10Z</time>
      </trkpt>
      <trkpt lat="45.94446" lon="3.58159">
        <ele>625</ele>
        <time>2010-01-29T18:49:10Z</time>
      </trkpt>
      <trkpt lat="45.9454" lon="3.58416">
        <ele>574</ele>
        <time>2010-01-29T18:49:10Z</time>
      </trkpt>
      <trkpt lat="45.94547" lon="3.58529">
        <ele>536</ele>
        <time>2010-01-29T18:49:10Z</time>
      </trkpt>
      <trkpt lat="45.94533" lon="3.58574">
        <ele>522</ele>
        <time>2010-01-29T18:49:10Z</time>
      </trkpt>
      <trkpt lat="45.94567" lon="3.5862">
        <ele>501</ele>
        <time>2010-01-29T18:49:10Z</time>
      </trkpt>
      <trkpt lat="45.94618" lon="3.58653">
        <ele>489</ele>
        <time>2010-01-29T18:49:10Z</time>
      </trkpt>
      <trkpt lat="45.9474" lon="3.58579">
        <ele>469</ele>
        <time>2010-01-29T18:49:10Z</time>
      </trkpt>
      <trkpt lat="45.94774" lon="3.58589">
        <ele>463</ele>
        <time>2010-01-29T18:49:10Z</time>
      </trkpt>
      <trkpt lat="45.94733" lon="3.58666">
        <ele>466</ele>
        <time>2010-01-29T18:49:10Z</time>
      </trkpt>
      <trkpt lat="45.94741" lon="3.58701">
        <ele>470</ele>
        <time>2010-01-29T18:49:10Z</time>
      </trkpt>
      <trkpt lat="45.94816" lon="3.58652">
        <ele>473</ele>
        <time>2010-01-29T18:49:10Z</time>
      </trkpt>
      <trkpt lat="45.949" lon="3.58595">
        <ele>482</ele>
        <time>2010-01-29T18:49:10Z</time>
      </trkpt>
      <trkpt lat="45.94925" lon="3.58535">
        <ele>474</ele>
        <time>2010-01-29T18:49:10Z</time>
      </trkpt>
      <trkpt lat="45.94972" lon="3.58416">
        <ele>474</ele>
        <time>2010-01-29T18:49:10Z</time>
      </trkpt>
      <trkpt lat="45.94973" lon="3.58313">
        <ele>469</ele>
        <time>2010-01-29T18:49:10Z</time>
      </trkpt>
      <trkpt lat="45.94999" lon="3.58198">
        <ele>469</ele>
        <time>2010-01-29T18:49:10Z</time>
      </trkpt>
      <trkpt lat="45.94987" lon="3.58001">
        <ele>459</ele>
        <time>2010-01-29T18:49:10Z</time>
      </trkpt>
      <trkpt lat="45.95045" lon="3.57902">
        <ele>464</ele>
        <time>2010-01-29T18:49:10Z</time>
      </trkpt>
      <trkpt lat="45.95099" lon="3.57842">
        <ele>465</ele>
        <time>2010-01-29T18:49:10Z</time>
      </trkpt>
      <trkpt lat="45.95188" lon="3.57783">
        <ele>493</ele>
        <time>2010-01-29T18:49:10Z</time>
      </trkpt>
      <trkpt lat="45.95238" lon="3.57742">
        <ele>504</ele>
        <time>2010-01-29T18:49:10Z</time>
      </trkpt>
      <trkpt lat="45.95274" lon="3.57759">
        <ele>499</ele>
        <time>2010-01-29T18:49:10Z</time>
      </trkpt>
      <trkpt lat="45.95333" lon="3.57693">
        <ele>491</ele>
        <time>2010-01-29T18:49:10Z</time>
      </trkpt>
      <trkpt lat="45.95344" lon="3.5767">
        <ele>489</ele>
        <time>2010-01-29T18:49:10Z</time>
      </trkpt>
      <trkpt lat="45.95399" lon="3.57646">
        <ele>489</ele>
        <time>2010-01-29T18:49:10Z</time>
      </trkpt>
      <trkpt lat="45.95453" lon="3.57586">
        <ele>488</ele>
        <time>2010-01-29T18:49:10Z</time>
      </trkpt>
      <trkpt lat="45.95462" lon="3.57557">
        <ele>478</ele>
        <time>2010-01-29T18:49:10Z</time>
      </trkpt>
      <trkpt lat="45.95452" lon="3.57524">
        <ele>486</ele>
        <time>2010-01-29T18:49:10Z</time>
      </trkpt>
      <trkpt lat="45.954" lon="3.57523">
        <ele>487</ele>
        <time>2010-01-29T18:49:10Z</time>
      </trkpt>
      <trkpt lat="45.95355" lon="3.57474">
        <ele>495</ele>
        <time>2010-01-29T18:49:10Z</time>
      </trkpt>
      <trkpt lat="45.95392" lon="3.57423">
        <ele>512</ele>
        <time>2010-01-29T18:49:10Z</time>
      </trkpt>
      <trkpt lat="45.9544" lon="3.57379">
        <ele>527</ele>
        <time>2010-01-29T18:49:10Z</time>
      </trkpt>
      <trkpt lat="45.95472" lon="3.57331">
        <ele>539</ele>
        <time>2010-01-29T18:49:10Z</time>
      </trkpt>
      <trkpt lat="45.95522" lon="3.57271">
        <ele>548</ele>
        <time>2010-01-29T18:49:10Z</time>
      </trkpt>
      <trkpt lat="45.95554" lon="3.57253">
        <ele>551</ele>
        <time>2010-01-29T18:49:10Z</time>
      </trkpt>
      <trkpt lat="45.95605" lon="3.57312">
        <ele>557</ele>
        <time>2010-01-29T18:49:10Z</time>
      </trkpt>
      <trkpt lat="45.95631" lon="3.57335">
        <ele>559</ele>
        <time>2010-01-29T18:49:10Z</time>
      </trkpt>
      <trkpt lat="45.95712" lon="3.5734">
        <ele>571</ele>
        <time>2010-01-29T18:49:10Z</time>
      </trkpt>
      <trkpt lat="45.95769" lon="3.57319">
        <ele>585</ele>
        <time>2010-01-29T18:49:10Z</time>
      </trkpt>
      <trkpt lat="45.95868" lon="3.57337">
        <ele>605</ele>
        <time>2010-01-29T18:49:10Z</time>
      </trkpt>
      <trkpt lat="45.96001" lon="3.5745">
        <ele>630</ele>
        <time>2010-01-29T18:49:10Z</time>
      </trkpt>
      <trkpt lat="45.96072" lon="3.57525">
        <ele>637</ele>
        <time>2010-01-29T18:49:10Z</time>
      </trkpt>
      <trkpt lat="45.96126" lon="3.57536">
        <ele>637</ele>
        <time>2010-01-29T18:49:10Z</time>
      </trkpt>
      <trkpt lat="45.96183" lon="3.57499">
        <ele>633</ele>
        <time>2010-01-29T18:49:10Z</time>
      </trkpt>
      <trkpt lat="45.96307" lon="3.57447">
        <ele>622</ele>
        <time>2010-01-29T18:49:10Z</time>
      </trkpt>
      <trkpt lat="45.9644" lon="3.5745">
        <ele>620</ele>
        <time>2010-01-29T18:49:10Z</time>
      </trkpt>
      <trkpt lat="45.96464" lon="3.5747">
        <ele>620</ele>
        <time>2010-01-29T18:49:10Z</time>
      </trkpt>
      <trkpt lat="45.96506" lon="3.57393">
        <ele>614</ele>
        <time>2010-01-29T18:49:10Z</time>
      </trkpt>
      <trkpt lat="45.96516" lon="3.57319">
        <ele>607</ele>
        <time>2010-01-29T18:49:10Z</time>
      </trkpt>
      <trkpt lat="45.96614" lon="3.57157">
        <ele>603</ele>
        <time>2010-01-29T18:49:10Z</time>
      </trkpt>
      <trkpt lat="45.96685" lon="3.57068">
        <ele>601</ele>
        <time>2010-01-29T18:49:10Z</time>
      </trkpt>
      <trkpt lat="45.9671" lon="3.5702">
        <ele>598</ele>
        <time>2010-01-29T18:49:10Z</time>
      </trkpt>
      <trkpt lat="45.96713" lon="3.56992">
        <ele>599</ele>
        <time>2010-01-29T18:49:10Z</time>
      </trkpt>
      <trkpt lat="45.96791" lon="3.56864">
        <ele>597</ele>
        <time>2010-01-29T18:49:10Z</time>
      </trkpt>
      <trkpt lat="45.96796" lon="3.56755">
        <ele>603</ele>
        <time>2010-01-29T18:49:10Z</time>
      </trkpt>
      <trkpt lat="45.96878" lon="3.56686">
        <ele>604</ele>
        <time>2010-01-29T18:49:10Z</time>
      </trkpt>
      <trkpt lat="45.96957" lon="3.56668">
        <ele>605</ele>
        <time>2010-01-29T18:49:10Z</time>
      </trkpt>
      <trkpt lat="45.97003" lon="3.56595">
        <ele>612</ele>
        <time>2010-01-29T18:49:10Z</time>
      </trkpt>
      <trkpt lat="45.97116" lon="3.56559">
        <ele>611</ele>
        <time>2010-01-29T18:49:10Z</time>
      </trkpt>
      <trkpt lat="45.97152" lon="3.56482">
        <ele>611</ele>
        <time>2010-01-29T18:49:10Z</time>
      </trkpt>
      <trkpt lat="45.97232" lon="3.56403">
        <ele>600</ele>
        <time>2010-01-29T18:49:10Z</time>
      </trkpt>
      <trkpt lat="45.9726" lon="3.56342">
        <ele>596</ele>
        <time>2010-01-29T18:49:10Z</time>
      </trkpt>
      <trkpt lat="45.9732" lon="3.56195">
        <ele>588</ele>
        <time>2010-01-29T18:49:10Z</time>
      </trkpt>
      <trkpt lat="45.97316" lon="3.56111">
        <ele>587</ele>
        <time>2010-01-29T18:49:10Z</time>
      </trkpt>
      <trkpt lat="45.97365" lon="3.55993">
        <ele>578</ele>
        <time>2010-01-29T18:49:10Z</time>
      </trkpt>
      <trkpt lat="45.97393" lon="3.559">
        <ele>575</ele>
        <time>2010-01-29T18:49:10Z</time>
      </trkpt>
      <trkpt lat="45.97374" lon="3.55793">
        <ele>576</ele>
        <time>2010-01-29T18:49:10Z</time>
      </trkpt>
      <trkpt lat="45.97309" lon="3.5555">
        <ele>573</ele>
        <time>2010-01-29T18:49:10Z</time>
      </trkpt>
      <trkpt lat="45.97436" lon="3.55408">
        <ele>564</ele>
        <time>2010-01-29T18:49:10Z</time>
      </trkpt>
      <trkpt lat="45.97471" lon="3.55321">
        <ele>567</ele>
        <time>2010-01-29T18:49:10Z</time>
      </trkpt>
      <trkpt lat="45.97546" lon="3.55233">
        <ele>568</ele>
        <time>2010-01-29T18:49:10Z</time>
      </trkpt>
      <trkpt lat="45.97614" lon="3.55231">
        <ele>555</ele>
        <time>2010-01-29T18:49:10Z</time>
      </trkpt>
      <trkpt lat="45.97675" lon="3.55193">
        <ele>551</ele>
        <time>2010-01-29T18:49:10Z</time>
      </trkpt>
      <trkpt lat="45.9775" lon="3.55137">
        <ele>550</ele>
        <time>2010-01-29T18:49:10Z</time>
      </trkpt>
      <trkpt lat="45.97757" lon="3.55034">
        <ele>550</ele>
        <time>2010-01-29T18:49:10Z</time>
      </trkpt>
      <trkpt lat="45.9772" lon="3.54943">
        <ele>552</ele>
        <time>2010-01-29T18:49:10Z</time>
      </trkpt>
      <trkpt lat="45.97681" lon="3.54855">
        <ele>558</ele>
        <time>2010-01-29T18:49:10Z</time>
      </trkpt>
      <trkpt lat="45.97692" lon="3.548">
        <ele>559</ele>
        <time>2010-01-29T18:49:10Z</time>
      </trkpt>
      <trkpt lat="45.97765" lon="3.54737">
        <ele>554</ele>
        <time>2010-01-29T18:49:10Z</time>
      </trkpt>
      <trkpt lat="45.97793" lon="3.54686">
        <ele>554</ele>
        <time>2010-01-29T18:49:10Z</time>
      </trkpt>
      <trkpt lat="45.97845" lon="3.54597">
        <ele>549</ele>
        <time>2010-01-29T18:49:10Z</time>
      </trkpt>
      <trkpt lat="45.97853" lon="3.54542">
        <ele>547</ele>
        <time>2010-01-29T18:49:10Z</time>
      </trkpt>
      <trkpt lat="45.97825" lon="3.54429">
        <ele>544</ele>
        <time>2010-01-29T18:49:10Z</time>
      </trkpt>
      <trkpt lat="45.97859" lon="3.54362">
        <ele>537</ele>
        <time>2010-01-29T18:49:10Z</time>
      </trkpt>
      <trkpt lat="45.97925" lon="3.54283">
        <ele>529</ele>
        <time>2010-01-29T18:49:10Z</time>
      </trkpt>
      <trkpt lat="45.97982" lon="3.5421">
        <ele>522</ele>
        <time>2010-01-29T18:49:10Z</time>
      </trkpt>
      <trkpt lat="45.98046" lon="3.54156">
        <ele>514</ele>
        <time>2010-01-29T18:49:10Z</time>
      </trkpt>
      <trkpt lat="45.98" lon="3.54042">
        <ele>507</ele>
        <time>2010-01-29T18:49:10Z</time>
      </trkpt>
      <trkpt lat="45.97953" lon="3.5398">
        <ele>504</ele>
        <time>2010-01-29T18:49:10Z</time>
      </trkpt>
      <trkpt lat="45.979" lon="3.53911">
        <ele>504</ele>
        <time>2010-01-29T18:49:10Z</time>
      </trkpt>
      <trkpt lat="45.97878" lon="3.5384">
        <ele>502</ele>
        <time>2010-01-29T18:49:10Z</time>
      </trkpt>
      <trkpt lat="45.97817" lon="3.5389">
        <ele>500</ele>
        <time>2010-01-29T18:49:10Z</time>
      </trkpt>
      <trkpt lat="45.97752" lon="3.53879">
        <ele>488</ele>
        <time>2010-01-29T18:49:10Z</time>
      </trkpt>
      <trkpt lat="45.9769" lon="3.53797">
        <ele>472</ele>
        <time>2010-01-29T18:49:10Z</time>
      </trkpt>
      <trkpt lat="45.97663" lon="3.53722">
        <ele>461</ele>
        <time>2010-01-29T18:49:10Z</time>
      </trkpt>
      <trkpt lat="45.97682" lon="3.53629">
        <ele>456</ele>
        <time>2010-01-29T18:49:10Z</time>
      </trkpt>
      <trkpt lat="45.97726" lon="3.53572">
        <ele>454</ele>
        <time>2010-01-29T18:49:10Z</time>
      </trkpt>
      <trkpt lat="45.97767" lon="3.53473">
        <ele>443</ele>
        <time>2010-01-29T18:49:10Z</time>
      </trkpt>
      <trkpt lat="45.97768" lon="3.5344">
        <ele>441</ele>
        <time>2010-01-29T18:49:10Z</time>
      </trkpt>
      <trkpt lat="45.97778" lon="3.5336">
        <ele>440</ele>
        <time>2010-01-29T18:49:10Z</time>
      </trkpt>
      <trkpt lat="45.97777" lon="3.53244">
        <ele>437</ele>
        <time>2010-01-29T18:49:10Z</time>
      </trkpt>
      <trkpt lat="45.97778" lon="3.53115">
        <ele>431</ele>
        <time>2010-01-29T18:49:10Z</time>
      </trkpt>
      <trkpt lat="45.97741" lon="3.52972">
        <ele>415</ele>
        <time>2010-01-29T18:49:10Z</time>
      </trkpt>
      <trkpt lat="45.97727" lon="3.52862">
        <ele>393</ele>
        <time>2010-01-29T18:49:10Z</time>
      </trkpt>
      <trkpt lat="45.97764" lon="3.52685">
        <ele>357</ele>
        <time>2010-01-29T18:49:10Z</time>
      </trkpt>
      <trkpt lat="45.97824" lon="3.52596">
        <ele>331</ele>
        <time>2010-01-29T18:49:10Z</time>
      </trkpt>
      <trkpt lat="45.97727" lon="3.52442">
        <ele>320</ele>
        <time>2010-01-29T18:49:10Z</time>
      </trkpt>
      <trkpt lat="45.97653" lon="3.52341">
        <ele>321</ele>
        <time>2010-01-29T18:49:10Z</time>
      </trkpt>
      <trkpt lat="45.97614" lon="3.52214">
        <ele>322</ele>
        <time>2010-01-29T18:49:10Z</time>
      </trkpt>
      <trkpt lat="45.97664" lon="3.52206">
        <ele>316</ele>
        <time>2010-01-29T18:49:10Z</time>
      </trkpt>
      <trkpt lat="45.97725" lon="3.52117">
        <ele>312</ele>
        <time>2010-01-29T18:49:10Z</time>
      </trkpt>
      <trkpt lat="45.97819" lon="3.52009">
        <ele>312</ele>
        <time>2010-01-29T18:49:10Z</time>
      </trkpt>
      <trkpt lat="45.97923" lon="3.51943">
        <ele>313</ele>
        <time>2010-01-29T18:49:10Z</time>
      </trkpt>
      <trkpt lat="45.97942" lon="3.51837">
        <ele>309</ele>
        <time>2010-01-29T18:49:10Z</time>
      </trkpt>
      <trkpt lat="45.97942" lon="3.51824">
        <ele>308</ele>
        <time>2010-01-29T18:49:10Z</time>
      </trkpt>
    </trkseg>
  </trk>
</gpx>